カタログに戻る

QIANFAN-146

運用中通信PO
NORAD 69105·PAYLOAD·🇨🇳 China

打ち上げ May 17, 2026 から Wenchang Space Launch Site

Loading…

次のパス (今後24時間)

TLE

最新Source: Space-Track

元期: Sep 14, 2026, 13:29 UTC

1 69105U 26108B   26257.56224850  .00000095  00000-0  12850-3 0  9995
2 69105  89.0191  12.9599 0001986  99.4176 260.7200 13.51038943 16603

AllMySatでQIANFAN-146をリアルタイム追跡

Download on the App Store